Livermore, CA

1:28 AM PDT on August 22, 2017 (GMT -0700)
Livermore Municipal

Weather History for KLVK - January, 2014

Change the Weather History Date:

Thursday, January 2, 2014

  Actual Average Record
Temperature  
Mean Temperature 52 °F 46 °F  
Max Temperature 67 °F 56 °F 69 °F (1959)
Min Temperature 37 °F 37 °F 20 °F (1976)
Degree Days  
Heating Degree Days 13 19  
Month to date heating degree days 28 38  
Since 1 July heating degree days 879 1069  
Cooling Degree Days 0 0  
Month to date cooling degree days 0 0  
Year to date cooling degree days 0 0  
Growing Degree Days 2 (Base 50)    
Moisture  
Dew Point 32 °F    
Average Humidity 52    
Maximum Humidity 76    
Minimum Humidity 28    
Precipitation  
Precipitation 0.00 in 0.13 in 1.28 in (1997)
Month to date precipitation 0.00 0.27  
Year to date precipitation 0.00 0.27  
Since 1 July precipitation 2.38  
Sea Level Pressure  
Sea Level Pressure 30.12 in    
Wind  
Wind Speed 4 mph (ENE)    
Max Wind Speed 14 mph    
Max Gust Speed 19 mph    
Visibility 10 miles    
Events      
T = Trace of Precipitation, MM = Missing Value Source: NWS Daily Summary

Daily Weather History Graph

Daily Weather History Graph

Search for Another Location

Airport or City:

Trip Planner

Search our weather history database for the weather conditions in past years. The results will help you decide how hot, cold, wet, or windy it might be!

Date:

Astronomy

Jan. 02, 2014 Rise Set
Actual Time 7:22 AM PST 5:00 PM PST
Civil Twilight 6:53 AM PST 5:29 PM PST
Nautical Twilight 6:20 AM PST 6:02 PM PST
Astronomical Twilight 5:48 AM PST 6:34 PM PST
Moon 8:10 AM PST (1/2) 7:01 PM PST (1/2)
Length of Visible Light 10h 36m
Length of Day
9h 37m
Waxing Crescent, 3% of the Moon is Illuminated
Jan 2
Waxing Crescent
Jan 7
First Quarter
Jan 15
Full
Jan 23
Last Quarter
Jan 30
New

Hourly Weather History & Observations

Time (PST) Temp. Windchill Dew Point Humidity Pressure Visibility Wind Dir Wind Speed Gust Speed Precip Events Conditions
12:53 AM 39.9 °F - 28.0 °F 63% 30.15 in 10.0 mi Calm Calm - N/A   Clear
1:53 AM 39.9 °F - 28.0 °F 63% 30.16 in 10.0 mi Calm Calm - N/A   Clear
2:53 AM 37.9 °F - 28.9 °F 70% 30.17 in 10.0 mi Calm Calm - N/A   Clear
3:53 AM 37.9 °F - 28.0 °F 68% 30.16 in 10.0 mi Calm Calm - N/A   Clear
4:53 AM 39.0 °F - 28.0 °F 65% 30.16 in 10.0 mi Calm Calm - N/A   Clear
5:53 AM 37.9 °F - 28.9 °F 70% 30.16 in 10.0 mi Calm Calm - N/A   Clear
6:53 AM 37.9 °F - 30.0 °F 73% 30.17 in 10.0 mi Calm Calm - N/A   Clear
7:53 AM 37.9 °F - 30.0 °F 73% 30.17 in 10.0 mi Calm Calm - N/A   Clear
8:53 AM 43.0 °F - 34.0 °F 71% 30.18 in 10.0 mi Calm Calm - N/A   Clear
9:53 AM 50.0 °F - 34.0 °F 54% 30.19 in 10.0 mi West 4.6 mph - N/A   Clear
10:40 AM 59.0 °F - 34.0 °F 39% 30.17 in 10.0 mi NE 8.1 mph - N/A   Clear
10:53 AM 62.1 °F - 34.0 °F 35% 30.17 in 10.0 mi NNE 12.7 mph - N/A   Clear
11:53 AM 64.0 °F - 33.1 °F 31% 30.14 in 10.0 mi ENE 12.7 mph - N/A   Clear
12:53 PM 64.9 °F - 32.0 °F 29% 30.11 in 10.0 mi NE 12.7 mph - N/A   Clear
1:53 PM 66.0 °F - 32.0 °F 28% 30.09 in 10.0 mi ENE 11.5 mph - N/A   Clear
2:53 PM 66.0 °F - 33.1 °F 29% 30.07 in 10.0 mi ENE 10.4 mph - N/A   Clear
3:53 PM 64.0 °F - 33.1 °F 31% 30.07 in 10.0 mi ENE 10.4 mph - N/A   Clear
4:53 PM 57.9 °F - 34.0 °F 41% 30.07 in 10.0 mi ENE 6.9 mph - N/A   Clear
5:53 PM 55.9 °F - 34.0 °F 44% 30.07 in 10.0 mi NE 5.8 mph - N/A   Clear
6:53 PM 52.0 °F - 33.1 °F 49% 30.07 in 10.0 mi Calm Calm - N/A   Clear
7:53 PM 50.0 °F - 33.1 °F 52% 30.07 in 10.0 mi ENE 3.5 mph - N/A   Clear
8:53 PM 48.0 °F - 32.0 °F 54% 30.07 in 10.0 mi Calm Calm - N/A   Clear
9:53 PM 48.0 °F - 33.1 °F 56% 30.07 in 10.0 mi Calm Calm - N/A   Clear
10:53 PM 45.0 °F 42.6 °F 33.1 °F 63% 30.06 in 10.0 mi East 4.6 mph - N/A   Clear
11:53 PM 44.1 °F - 32.0 °F 63% 30.06 in 10.0 mi Calm Calm - N/A   Clear